[[{"header":{"parameterUnit":"m.s-1","parameterCategory":1,"la1":30.2991,"la2":30.254,"lo1":-89.0895,"lo2":-89.0444,"dy":0.0017,"dx":0.0017,"nx":28,"ny":28,"refTime":"2024-05-09T09:00:00:Z","depth":0,"parameterNumber":2,"parameterNumberName":"U-component_of_WINDS"},"data":[0,0,0,0,0,0,0,0,0,0,0,0,0,0,0,0,0,0,0,0,0,0,0,0,0,0,0,0,0,0,0,0,0,0,0,0,0,0,0,0,0,0,0,0,0,0,0,0,0,0,0,0,0,0,0,0,0,0,1.0984,1.0985,0,1.1067,1.1068,1.1069,1.1056,1.1054,1.1053,1.1052,1.1143,1.1146,1.115,0,0,0,0,0,0,0,0,0,0,0,0,0,1.0821,1.0824,1.0984,1.0985,1.0986,1.1067,1.1068,1.1069,1.1056,1.1054,1.1053,1.1051,1.1141,1.1146,1.115,0,0,0,0,0,0,0,0,0,0,0,0,0,1.0897,1.0825,1.0984,1.0989,1.099,1.1067,1.1068,1.107,1.1056,1.1054,1.1052,1.105,1.114,1.1145,1.1151,1.1229,0,0,1.1168,1.1171,0,0,0,0,0,0,0,0,1.0893,1.0903,1.0987,1.0989,1.099,1.1049,1.1044,1.1123,1.1057,1.1031,1.1052,1.1049,1.1113,1.1121,1.1142,1.1234,1.1237,1.1169,1.1172,1.1175,1.1176,0,0,0,0,0,0,0,1.0888,1.09,1.1017,1.0988,1.099,1.099,1.0998,1.1059,1.1084,1.1033,1.1033,1.1042,1.1114,1.1136,1.1144,1.1239,1.1169,1.1174,1.1177,1.1179,1.1406,1.1408,0,0,0,0,0,0,1.088,1.0895,1.1014,1.1019,1.0935,1.0995,1.1004,1.1032,1.1083,1.1089,1.1044,1.1042,1.1128,1.1137,1.1147,1.1246,1.1174,1.118,1.1183,1.1403,1.1407,1.1409,0,0,0,0,0,0,1.0876,1.0891,1.1011,1.0957,1.0972,1.1,1.1032,1.1035,1.1057,1.1091,1.1096,1.1062,1.1126,1.1139,1.121,1.1249,1.1182,1.1187,1.14,1.1404,1.1408,1.1443,0,0,0,0,0,0,1.0872,1.0889,1.0917,1.0958,1.0975,1.107,1.1034,1.1038,1.1066,1.1064,1.1109,1.1115,1.1126,1.1202,1.1216,1.1256,1.1192,1.1397,1.1402,1.1407,1.1438,1.1448,1.1455,0,0,0,0,0,1.0866,1.0923,1.0918,1.0933,1.101,1.1072,1.1082,1.1092,1.1069,1.11,1.1122,1.1113,1.1242,1.1209,1.1225,1.1267,1.1395,1.1401,1.1406,1.1435,1.1446,1.1455,0,0,0,0,0,0,1.0887,1.0929,1.0924,1.0995,1.103,1.1069,1.1107,1.1103,1.1146,1.1142,1.1154,1.1165,1.1238,1.1259,1.1221,1.1349,1.1316,1.1325,1.1332,1.1343,1.1351,1.1345,1.1197,0,0,0,0,0,1.09,1.0944,1.0979,1.1039,1.1057,1.1079,1.1107,1.1112,1.1149,1.1164,1.1191,1.123,1.128,1.1312,1.1359,1.1441,1.1454,1.1479,1.1487,1.1494,1.1503,1.1553,1.1566,1.1429,1.1429,1.1429,0,0,1.0927,1.0955,1.0983,1.1045,1.1072,1.1121,1.1092,1.1144,1.1182,1.1172,1.1242,1.1264,1.1308,1.1386,1.1422,1.1407,1.1544,1.1502,1.1507,1.1512,1.1561,1.1574,1.1585,1.1433,1.1432,1.1431,0,0,1.1002,1.1026,1.1081,1.111,1.1153,1.1168,1.1181,1.1222,1.1237,1.1306,1.1302,1.1349,1.1432,1.1466,1.1494,1.1587,1.1583,1.1602,1.1647,1.1697,1.1707,1.1717,1.1755,1.1768,1.161,1.1611,1.1611,0,1.1031,1.1103,1.1111,1.1165,1.1194,1.1188,1.1247,1.1275,1.1331,1.1353,1.1334,1.1443,1.1472,1.1561,1.1584,1.1605,1.1625,1.1598,1.1705,1.1715,1.1724,1.176,1.1774,1.1613,1.1613,1.1612,1.1612,0,1.1139,1.1189,1.1229,1.1283,1.1317,1.1373,1.1393,1.1427,1.1431,1.1449,1.1523,1.1558,1.1615,1.1636,1.1639,1.1727,1.1717,1.1701,1.1669,1.1739,1.1774,1.1787,1.1616,1.1615,1.1615,1.1614,0,0,1.1228,1.1289,1.1303,1.133,1.1379,1.1419,1.1477,1.1532,1.1563,1.1603,1.1655,1.1729,1.1716,1.1748,1.1756,1.1799,1.1877,1.1779,1.178,1.1799,1.1982,1.1995,1.201,1.1873,1.1876,1.1878,1.1979,0,1.131,1.141,1.1422,1.1513,1.1562,1.1559,1.1611,1.1648,1.1668,1.1716,1.1738,1.1792,1.1769,1.1789,1.1831,1.1858,1.1914,1.1851,1.1926,1.1929,1.1917,1.2028,1.2041,1.2134,1.1992,1.1995,1.1996,0,1.1419,1.1463,1.1559,1.1605,1.1626,1.1672,1.1726,1.1769,1.1814,1.1826,1.1864,1.1868,1.1932,1.1896,1.1988,1.1945,1.1977,1.1996,1.2,1.2009,1.1968,1.2043,1.2164,1.2179,1.2017,1.2015,1.2013,0,1.1479,1.1562,1.1632,1.1654,1.1709,1.1742,1.1767,1.1809,1.1843,1.1891,1.1914,1.1969,1.2,1.2045,1.2065,1.2036,1.2158,1.2122,1.2174,1.2173,1.22,1.2199,1.2331,1.2216,1.2216,1.2216,1.2215,0,1.1572,1.1631,1.166,1.1703,1.1772,1.1786,1.1855,1.1879,1.1917,1.1968,1.1969,1.2017,1.2039,1.2092,1.2108,1.2185,1.2198,1.2213,1.2217,1.2215,1.2213,1.2237,1.2232,1.2219,1.2219,1.2218,1.2217,0,1.165,1.1671,1.1748,1.1794,1.1807,1.1856,1.1898,1.1942,1.1962,1.2027,1.2043,1.2077,1.214,1.2164,1.224,1.2252,1.2342,1.2339,1.2326,1.2328,1.238,1.2376,1.2534,1.2557,1.2424,1.2425,1.2426,0,1.1709,1.1755,1.1807,1.1841,1.1867,1.192,1.1955,1.1973,1.201,1.2067,1.2106,1.2168,1.2219,1.2321,1.2354,1.2414,1.2415,1.2467,1.2425,1.2422,1.2421,1.2419,1.2426,1.2475,1.2477,1.2478,1.2478,0,1.1812,1.1821,1.1871,1.1926,1.1968,1.2012,1.2055,1.2084,1.2109,1.2151,1.2215,1.2255,1.2335,1.2399,1.2462,1.2491,1.2491,1.2492,1.2507,1.2506,1.2499,1.2508,1.2351,1.2488,1.2487,1.2486,1.2486,1.2486,1.1885,1.1928,1.1972,1.2029,1.2064,1.2106,1.2151,1.2178,1.2231,1.2296,1.2304,1.2375,1.2424,1.2508,1.2541,1.2599,1.2585,1.2607,1.2613,1.2619,1.2625,1.2487,1.261,1.261,1.2609,1.2609,1.2609,0,1.1991,1.2021,1.2073,1.2134,1.2181,1.2175,1.2224,1.2264,1.2325,1.237,1.2421,1.2498,1.2561,1.2601,1.2665,1.2705,1.2707,1.2722,1.272,1.2728,1.2631,1.2612,1.2719,1.2719,1.2719,1.2719,1.2719,1.2719,1.2052,1.2126,1.2142,1.2235,1.2264,1.2332,1.2362,1.2402,1.2438,1.2524,1.2576,1.2601,1.2646,1.2715,1.2775,1.2785,1.2811,1.2827,1.2837,1.2746,1.2734,1.2724,1.2707,1.2832,1.2832,1.293,1.2931,1.2932]},{"header":{"parameterUnit":"m.s-1","parameterCategory":1,"la1":30.2991,"la2":30.254,"lo1":-89.0895,"lo2":-89.0444,"dy":0.0017,"dx":0.0017,"nx":28,"ny":28,"refTime":"2024-05-09T09:00:00:Z","depth":0,"parameterNumber":3,"parameterNumberName":"V-component_of_WINDS"},"data":[0,0,0,0,0,0,0,0,0,0,0,0,0,0,0,0,0,0,0,0,0,0,0,0,0,0,0,0,0,0,0,0,0,0,0,0,0,0,0,0,0,0,0,0,0,0,0,0,0,0,0,0,0,0,0,0,0,0,-3.4267,-3.4266,0,-3.4191,-3.419,-3.4189,-3.4234,-3.4236,-3.4238,-3.424,-3.415,-3.4146,-3.4142,0,0,0,0,0,0,0,0,0,0,0,0,0,-3.4439,-3.4436,-3.4267,-3.4266,-3.4265,-3.4191,-3.419,-3.4189,-3.4233,-3.4236,-3.4239,-3.4241,-3.4152,-3.4146,-3.4141,0,0,0,0,0,0,0,0,0,0,0,0,0,-3.4363,-3.4435,-3.4267,-3.4278,-3.4279,-3.4191,-3.419,-3.4188,-3.4233,-3.4236,-3.4239,-3.4243,-3.4153,-3.4147,-3.414,-3.4033,0,0,-3.412,-3.4117,0,0,0,0,0,0,0,0,-3.4368,-3.4357,-3.4278,-3.4277,-3.4278,-3.4225,-3.4218,-3.4136,-3.4232,-3.425,-3.424,-3.4244,-3.4172,-3.4164,-3.4142,-3.4029,-3.4025,-3.4119,-3.4115,-3.4113,-3.4111,0,0,0,0,0,0,0,-3.4373,-3.436,-3.4236,-3.4276,-3.4276,-3.4284,-3.4277,-3.4202,-3.4193,-3.4249,-3.4252,-3.4243,-3.4172,-3.4148,-3.414,-3.4024,-3.412,-3.4114,-3.411,-3.4107,-3.3816,-3.3812,0,0,0,0,0,0,-3.4379,-3.4365,-3.4239,-3.4234,-3.4332,-3.4278,-3.427,-3.4239,-3.4194,-3.419,-3.424,-3.4245,-3.4158,-3.4148,-3.4137,-3.4005,-3.4113,-3.4106,-3.4103,-3.382,-3.3815,-3.3811,0,0,0,0,0,0,-3.4382,-3.4367,-3.4242,-3.43,-3.4285,-3.4272,-3.4236,-3.4235,-3.4211,-3.4188,-3.4185,-3.4218,-3.416,-3.4147,-3.4059,-3.4003,-3.4103,-3.4097,-3.3824,-3.3818,-3.3813,-3.3743,0,0,0,0,0,0,-3.4387,-3.4368,-3.433,-3.4299,-3.4282,-3.4168,-3.4233,-3.4231,-3.4201,-3.4207,-3.4166,-3.4162,-3.4162,-3.4069,-3.4052,-3.3996,-3.4092,-3.3829,-3.3822,-3.3815,-3.375,-3.3736,-3.3724,0,0,0,0,0,-3.4393,-3.4311,-3.4328,-3.4312,-3.4234,-3.4164,-3.4154,-3.4159,-3.4197,-3.4156,-3.4141,-3.4163,-3.4014,-3.4059,-3.4041,-3.3982,-3.3832,-3.3824,-3.3815,-3.3756,-3.3739,-3.3724,0,0,0,0,0,0,-3.433,-3.4307,-3.4325,-3.4231,-3.42,-3.4172,-3.4121,-3.414,-3.4094,-3.4101,-3.4106,-3.4096,-3.4004,-3.3985,-3.4037,-3.3874,-3.3928,-3.3916,-3.3889,-3.3872,-3.3859,-3.3863,-3.4087,0,0,0,0,0,-3.4307,-3.4256,-3.4237,-3.4156,-3.414,-3.4133,-3.4103,-3.411,-3.4076,-3.4062,-3.404,-3.4003,-3.3947,-3.391,-3.3857,-3.375,-3.3739,-3.37,-3.3687,-3.3676,-3.3663,-3.3601,-3.3582,-3.3784,-3.3784,-3.3784,0,0,-3.4255,-3.4236,-3.4203,-3.4143,-3.4119,-3.4063,-3.4121,-3.4059,-3.4016,-3.4051,-3.3966,-3.395,-3.3908,-3.381,-3.3765,-3.3791,-3.3606,-3.3665,-3.3657,-3.3649,-3.359,-3.3571,-3.3554,-3.3778,-3.3779,-3.378,0,0,-3.413,-3.4114,-3.4043,-3.4019,-3.3985,-3.3981,-3.3965,-3.3934,-3.3925,-3.3843,-3.3867,-3.3814,-3.3719,-3.3688,-3.3659,-3.3526,-3.3543,-3.3509,-3.3436,-3.3376,-3.336,-3.3346,-3.3293,-3.3275,-3.3498,-3.3497,-3.3497,0,-3.4068,-3.3988,-3.4003,-3.3939,-3.391,-3.3945,-3.387,-3.3846,-3.3794,-3.3771,-3.3803,-3.3684,-3.3659,-3.3552,-3.3519,-3.3497,-3.3474,-3.351,-3.3362,-3.3348,-3.3335,-3.3284,-3.3265,-3.3493,-3.3494,-3.3494,-3.3494,0,-3.3912,-3.3856,-3.3802,-3.3755,-3.3721,-3.3652,-3.3653,-3.3616,-3.3627,-3.3619,-3.3532,-3.3504,-3.3445,-3.3422,-3.343,-3.3315,-3.3332,-3.3363,-3.3415,-3.3311,-3.3263,-3.3244,-3.3487,-3.3488,-3.349,-3.3491,0,0,-3.3739,-3.3705,-3.3684,-3.3663,-3.3629,-3.3583,-3.3516,-3.3463,-3.3429,-3.3393,-3.3332,-3.3253,-3.3281,-3.3249,-3.3255,-3.3203,-3.3093,-3.324,-3.3239,-3.3209,-3.2959,-3.2931,-3.2909,-3.3108,-3.3105,-3.3102,-3.296,0,-3.3609,-3.3494,-3.3506,-3.3394,-3.334,-3.3374,-3.3314,-3.3284,-3.3276,-3.3226,-3.3216,-3.3157,-3.3202,-3.3183,-3.3133,-3.3117,-3.3042,-3.3128,-3.3045,-3.3042,-3.3048,-3.2885,-3.2855,-3.2723,-3.2942,-3.2939,-3.2937,0,-3.344,-3.3402,-3.3286,-3.326,-3.3237,-3.3184,-3.3135,-3.3089,-3.3055,-3.3053,-3.3018,-3.3033,-3.296,-3.3021,-3.2918,-3.2976,-3.2944,-3.2931,-3.2926,-3.2912,-3.2978,-3.2861,-3.2681,-3.2659,-3.2909,-3.2911,-3.2913,0,-3.3319,-3.3239,-3.3159,-3.314,-3.3109,-3.307,-3.3054,-3.3025,-3.2992,-3.2949,-3.2927,-3.2875,-3.2845,-3.2803,-3.2802,-3.2847,-3.2696,-3.2757,-3.2686,-3.2686,-3.2647,-3.2648,-3.2453,-3.2637,-3.2637,-3.2638,-3.2638,0,-3.3168,-3.3094,-3.3104,-3.3054,-3.2971,-3.2986,-3.2902,-3.2891,-3.2865,-3.2809,-3.2837,-3.2783,-3.2789,-3.2734,-3.2733,-3.2645,-3.2633,-3.2624,-3.2624,-3.2618,-3.2618,-3.2592,-3.2598,-3.2632,-3.2633,-3.2634,-3.2635,0,-3.3016,-3.3021,-3.2935,-3.2914,-3.2907,-3.2847,-3.2827,-3.2777,-3.2774,-3.2703,-3.2688,-3.2679,-3.2616,-3.2614,-3.2541,-3.254,-3.2431,-3.2444,-3.2443,-3.2443,-3.237,-3.2374,-3.2145,-3.2114,-3.2324,-3.2323,-3.2321,0,-3.2916,-3.286,-3.2835,-3.2803,-3.2786,-3.2732,-3.27,-3.2713,-3.2677,-3.2636,-3.2589,-3.2531,-3.2483,-3.2381,-3.2365,-3.2309,-3.2316,-3.224,-3.2307,-3.2303,-3.2308,-3.2308,-3.23,-3.2224,-3.2222,-3.222,-3.2219,0,-3.2736,-3.2742,-3.2696,-3.2651,-3.2613,-3.2578,-3.2544,-3.2515,-3.2524,-3.2482,-3.242,-3.2384,-3.2312,-3.225,-3.2196,-3.2176,-3.2195,-3.22,-3.2179,-3.2169,-3.2168,-3.2161,-3.24,-3.2202,-3.2204,-3.2205,-3.2206,-3.2207,-3.2602,-3.2554,-3.2528,-3.2476,-3.2454,-3.2423,-3.2375,-3.2368,-3.2318,-3.2262,-3.2273,-3.2202,-3.2169,-3.2099,-3.2075,-3.2017,-3.2042,-3.2014,-3.2005,-3.1996,-3.1986,-3.2184,-3.2008,-3.2008,-3.2009,-3.2009,-3.2009,0,-3.2418,-3.2405,-3.2358,-3.2313,-3.2271,-3.2302,-3.2267,-3.2228,-3.2168,-3.2138,-3.2092,-3.202,-3.1962,-3.1944,-3.1886,-3.1843,-3.185,-3.1826,-3.1826,-3.182,-3.197,-3.199,-3.1821,-3.1821,-3.1821,-3.1821,-3.1821,-3.1821,-3.2317,-3.2235,-3.2238,-3.2145,-3.2132,-3.2066,-3.2043,-3.2013,-3.1989,-3.1908,-3.1862,-3.1853,-3.1826,-3.1767,-3.1713,-3.1709,-3.1683,-3.1654,-3.1653,-3.1791,-3.181,-3.1828,-3.1847,-3.165,-3.165,-3.1507,-3.1506,-3.1505]}]]